User: anonymous   Login
Location: Kelowna
(49.8880°N, 119.4960°W)
Time: 21:17:48
(UTC-07:00)
Language:

XW-2B - Orbit

View from above orbital plane
View from above orbital plane
View from above satellite
View from above satellite

Ground track
Ground track

The orbit data is extracted from the following two-line orbital elements,

1 40911U 15049N   24106.85118515  .00047360  00000-0  10674-2 0  9991
2 40911  97.4771 124.3339 0009519 144.2997 215.8889 15.43068614474933
Epoch (UTC): 15 April 2024 20:25:42
Eccentricity: 0.0009519
inclination: 97.4771°
perigee height: 430 km
apogee height: 443 km
right ascension of ascending node: 124.3339°
argument of perigee: 144.2997°
revolutions per day: 15.43068614
mean anomaly at epoch: 215.8889°
orbit number at epoch: 47493

The dashed part of the orbit path shows where the satellite is in the earth's shadow,  

DLR